Weather History for KVTI - May, 2014

Change the Weather History Date:

Sunday, May 18, 2014

  Actual Average (KCID) Record (KCID)
Temperature  
Mean Temperature 58 °F 61 °F  
Max Temperature 72 °F 72 °F 92 °F (1964)
Min Temperature 43 °F 50 °F 32 °F (1945)
Degree Days  
Heating Degree Days 8 6  
Month to date heating degree days 141  
Since 1 July heating degree days 6786  
Cooling Degree Days 0 1  
Month to date cooling degree days 13  
Year to date cooling degree days 20  
Growing Degree Days 8 (Base 50)    
Moisture  
Dew Point 39 °F    
Average Humidity 48    
Maximum Humidity 76    
Minimum Humidity 30    
Precipitation  
Precipitation 0.00 in 0.14 in - ()
Month to date precipitation 2.36  
Year to date precipitation 9.65  
Sea Level Pressure  
Sea Level Pressure 30.13 in    
Wind  
Wind Speed 8 mph (SSW)    
Max Wind Speed 17 mph    
Max Gust Speed 28 mph    
Visibility 10 miles    
Events Rain    
T = Trace of Precipitation, MM = Missing Value Source: NWS Daily Summary

Daily Weather History Graph

Daily Weather History Graph

Search for Another Location

Airport or City:

Trip Planner

Search our weather history database for the weather conditions in past years. The results will help you decide how hot, cold, wet, or windy it might be!

Date:

Astronomy

May. 18, 2014 Rise Set
Actual Time 5:44 AM CDT 8:25 PM CDT
Civil Twilight 5:11 AM CDT 8:58 PM CDT
Nautical Twilight 4:31 AM CDT 9:38 PM CDT
Astronomical Twilight 3:44 AM CDT 10:25 PM CDT
Moon No Moon Rise 9:34 AM CDT (5/18)
Length of Visible Light 15h 46m
Length of Day
14h 41m
Waning Gibbous, 81% of the Moon is Illuminated
May 18
Waning Gibbous
May 21
Last Quarter
May 28
New
Jun 5
First Quarter
Jun 12
Full

Hourly Weather History & Observations

Time (CDT) Temp. Windchill Dew Point Humidity Pressure Visibility Wind Dir Wind Speed Gust Speed Precip Events Conditions
12:15 AM 49.5 °F - 35.8 °F 59% 30.13 in 10.0 mi South 8.1 mph - N/A   Clear
12:35 AM 49.5 °F - 36.5 °F 61% 30.13 in 10.0 mi South 8.1 mph - N/A   Clear
12:55 AM 49.5 °F - 35.8 °F 59% 30.14 in 10.0 mi South 9.2 mph - N/A   Clear
1:15 AM 49.5 °F - 36.5 °F 61% 30.14 in 10.0 mi South 8.1 mph - N/A   Clear
1:35 AM 49.5 °F - 37.4 °F 63% 30.13 in 10.0 mi South 8.1 mph - N/A   Clear
1:55 AM 49.5 °F - 37.4 °F 63% 30.14 in 10.0 mi SSW 6.9 mph - N/A   Clear
2:15 AM 49.1 °F - 37.4 °F 64% 30.14 in 10.0 mi SSW 6.9 mph - N/A   Clear
2:35 AM 47.3 °F - 36.0 °F 65% 30.14 in 10.0 mi South 6.9 mph - N/A   Clear
2:55 AM 46.9 °F - 36.9 °F 68% 30.14 in 10.0 mi South 6.9 mph - N/A   Clear
3:15 AM 46.9 °F - 37.4 °F 69% 30.14 in 10.0 mi South 5.8 mph - N/A   Clear
3:35 AM 46.9 °F - 36.9 °F 68% 30.15 in 10.0 mi South 6.9 mph - N/A   Clear
3:55 AM 46.4 °F 43.5 °F 37.0 °F 70% 30.15 in 10.0 mi SSW 5.8 mph - N/A   Clear
4:15 AM 44.6 °F 41.4 °F 35.6 °F 71% 30.15 in 10.0 mi South 5.8 mph - N/A   Clear
4:35 AM 44.6 °F 43.1 °F 35.6 °F 71% 30.15 in 10.0 mi SSW 3.5 mph - N/A   Clear
4:55 AM 44.2 °F 42.7 °F 35.4 °F 71% 30.16 in 10.0 mi South 3.5 mph - N/A   Clear
5:15 AM 43.7 °F 42.1 °F 35.1 °F 72% 30.16 in 10.0 mi SSW 3.5 mph - N/A   Clear
5:35 AM 43.2 °F 40.5 °F 35.1 °F 73% 30.16 in 10.0 mi SSW 4.6 mph - N/A   Clear
5:55 AM 43.2 °F 41.5 °F 34.9 °F 73% 30.17 in 10.0 mi SSW 3.5 mph - N/A   Clear
6:15 AM 43.2 °F 40.5 °F 35.1 °F 73% 30.17 in 10.0 mi SSW 4.6 mph - N/A   Clear
6:35 AM 43.2 °F 40.5 °F 36.0 °F 76% 30.18 in 10.0 mi South 4.6 mph - N/A   Clear
6:55 AM 46.8 °F - 38.1 °F 72% 30.18 in 10.0 mi South 4.6 mph - N/A   Clear
7:15 AM 49.3 °F - 40.3 °F 71% 30.18 in 10.0 mi SSW 3.5 mph - N/A   Clear
7:35 AM 49.5 °F - 39.2 °F 68% 30.18 in 10.0 mi SSW 3.5 mph - N/A   Clear
7:55 AM 52.0 °F - 39.7 °F 63% 30.18 in 10.0 mi SW 5.8 mph - N/A   Clear
8:15 AM 54.5 °F - 41.0 °F 60% 30.18 in 10.0 mi SSW 5.8 mph - N/A   Clear
8:35 AM 57.2 °F - 41.0 °F 55% 30.19 in 10.0 mi SW 5.8 mph - N/A   Clear
8:55 AM 59.5 °F - 41.0 °F 50% 30.19 in 10.0 mi WSW 6.9 mph - N/A   Clear
9:15 AM 60.8 °F - 41.0 °F 48% 30.19 in 10.0 mi SW 8.1 mph - N/A   Clear
9:35 AM 62.1 °F - 40.8 °F 46% 30.19 in 10.0 mi WSW 8.1 mph - N/A   Clear
9:55 AM 63.5 °F - 40.5 °F 43% 30.19 in 10.0 mi WSW 8.1 mph - N/A   Clear
10:15 AM 64.6 °F - 40.1 °F 41% 30.19 in 10.0 mi WSW 11.5 mph - N/A   Clear
10:35 AM 67.1 °F - 40.1 °F 37% 30.19 in 10.0 mi WSW 9.2 mph - N/A   Clear
10:55 AM 67.1 °F - 38.1 °F 34% 30.19 in 10.0 mi WSW 8.1 mph - N/A   Clear
11:15 AM 69.8 °F - 39.9 °F 34% 30.18 in 10.0 mi SW 6.9 mph - N/A   Clear
11:35 AM 69.8 °F - 38.5 °F 32% 30.18 in 10.0 mi WSW 8.1 mph - N/A   Clear
11:55 AM 69.8 °F - 37.8 °F 31% 30.18 in 10.0 mi SW 10.4 mph 17.3 mph N/A   Clear
12:15 PM 69.8 °F - 38.3 °F 32% 30.17 in 10.0 mi SW 8.1 mph 18.4 mph N/A   Clear
12:35 PM 69.8 °F - 37.9 °F 31% 30.16 in 10.0 mi SSW 15.0 mph - N/A   Clear
12:55 PM 69.8 °F - 37.6 °F 31% 30.16 in 10.0 mi South 12.7 mph 20.7 mph N/A   Clear
1:15 PM 69.8 °F - 37.9 °F 31% 30.15 in 10.0 mi SW 11.5 mph 17.3 mph N/A   Clear
1:35 PM 69.8 °F - 37.9 °F 31% 30.15 in 10.0 mi SSE 11.5 mph 16.1 mph N/A   Scattered Clouds
1:55 PM 69.8 °F - 37.4 °F 31% 30.15 in 10.0 mi SSW 17.3 mph 21.9 mph N/A   Scattered Clouds
2:15 PM 71.4 °F - 38.7 °F 30% 30.14 in 10.0 mi SSW 17.3 mph 20.7 mph N/A   Clear
2:35 PM 70.2 °F - 37.0 °F 30% 30.13 in 10.0 mi SSW 8.1 mph 16.1 mph N/A   Scattered Clouds
2:55 PM 70.7 °F - 38.7 °F 31% 30.13 in 10.0 mi South 12.7 mph 19.6 mph N/A   Clear
3:15 PM 70.2 °F - 37.9 °F 31% 30.12 in 10.0 mi South 12.7 mph 19.6 mph N/A   Scattered Clouds
3:35 PM 70.2 °F - 38.8 °F 32% 30.11 in 10.0 mi South 17.3 mph 23.0 mph N/A   Scattered Clouds
3:55 PM 72.0 °F - 39.2 °F 30% 30.11 in 10.0 mi SSW 11.5 mph 23.0 mph N/A   Scattered Clouds
4:15 PM 71.2 °F - 38.8 °F 31% 30.11 in 10.0 mi South 10.4 mph 18.4 mph N/A   Clear
4:35 PM 72.0 °F - 39.9 °F 31% 30.10 in 10.0 mi South 15.0 mph 19.6 mph N/A   Clear
4:55 PM 70.3 °F - 39.2 °F 32% 30.10 in 10.0 mi South 15.0 mph 20.7 mph N/A   Clear
5:15 PM 70.5 °F - 39.4 °F 32% 30.09 in 10.0 mi SSE 13.8 mph - N/A   Clear
5:35 PM 69.8 °F - 38.3 °F 32% 30.09 in 10.0 mi South 12.7 mph 18.4 mph N/A   Clear
5:55 PM 69.8 °F - 39.0 °F 33% 30.08 in 10.0 mi South 13.8 mph 27.6 mph N/A   Clear
6:15 PM 69.8 °F - 38.8 °F 32% 30.08 in 10.0 mi South 17.3 mph 23.0 mph N/A   Clear
6:35 PM 69.8 °F - 39.2 °F 33% 30.08 in 10.0 mi SSE 13.8 mph 20.7 mph N/A   Clear
6:55 PM 69.8 °F - 40.8 °F 35% 30.08 in 10.0 mi South 15.0 mph - N/A   Clear
7:15 PM 68.4 °F - 41.0 °F 37% 30.08 in 10.0 mi South 12.7 mph 19.6 mph N/A   Clear
7:35 PM 67.1 °F - 40.3 °F 38% 30.07 in 10.0 mi South 11.5 mph 17.3 mph N/A   Clear
7:55 PM 64.6 °F - 38.5 °F 38% 30.07 in 10.0 mi South 11.5 mph - N/A   Clear
8:15 PM 63.0 °F - 38.1 °F 40% 30.07 in 10.0 mi South 11.5 mph 17.3 mph N/A   Clear
8:35 PM 62.1 °F - 38.3 °F 41% 30.07 in 10.0 mi SSE 10.4 mph - N/A   Clear
8:55 PM 60.8 °F - 39.2 °F 45% 30.07 in 10.0 mi SSE 10.4 mph - N/A   Clear
9:15 PM 59.7 °F - 39.2 °F 47% 30.07 in 10.0 mi SSE 10.4 mph - N/A   Clear
9:35 PM 59.5 °F - 40.8 °F 50% 30.08 in 10.0 mi SSE 9.2 mph - N/A   Clear
9:55 PM 59.5 °F - 41.0 °F 50% 30.08 in 10.0 mi SSE 8.1 mph - N/A   Clear
10:15 PM 59.5 °F - 41.0 °F 50% 30.09 in 10.0 mi South 9.2 mph - N/A   Scattered Clouds
10:35 PM 59.5 °F - 40.5 °F 49% 30.08 in 10.0 mi South 11.5 mph - N/A   Mostly Cloudy
11:00 PM 59.5 °F - 41.0 °F 50% 30.08 in 10.0 mi South 11.5 mph 16.1 mph N/A   Mostly Cloudy
11:15 PM 59.5 °F - 41.2 °F 51% 30.08 in 10.0 mi SSE 9.2 mph - N/A   Scattered Clouds
11:35 PM 59.5 °F - 41.7 °F 52% 30.10 in 10.0 mi SSE 9.2 mph - N/A   Scattered Clouds
11:55 PM 57.4 °F - 41.4 °F 55% 30.11 in 10.0 mi SSE 6.9 mph - N/A Rain Light Rain